Weather History for KDFI - January, 2014

Change the Weather History Date:

Monday, January 27, 2014

  Actual Average Record
Temperature  
Mean Temperature 10 °F -  
Max Temperature 26 °F 30 °F 60 °F (1999)
Min Temperature -7 °F 14 °F -11 °F (2003)
Degree Days  
Heating Degree Days 55    
Moisture  
Dew Point 1 °F    
Average Humidity 67    
Maximum Humidity 86    
Minimum Humidity 53    
Precipitation  
Precipitation 0.02 in - - ()
Sea Level Pressure  
Sea Level Pressure 29.94 in    
Wind  
Wind Speed 13 mph (West)    
Max Wind Speed 21 mph    
Max Gust Speed 39 mph    
Visibility 7 miles    
Events Snow    
Averages and records for this station are not official NWS values.
T = Trace of Precipitation, MM = Missing Value Source: NWS Daily Summary

Daily Weather History Graph

Daily Weather History Graph

Search for Another Location

Airport or City:

Trip Planner

Search our weather history database for the weather conditions in past years. The results will help you decide how hot, cold, wet, or windy it might be!

Date:

Astronomy

Jan. 27, 2014 Rise Set
Actual Time 7:53 AM EST 5:47 PM EST
Civil Twilight 7:24 AM EST 6:17 PM EST
Nautical Twilight 6:50 AM EST 6:50 PM EST
Astronomical Twilight 6:18 AM EST 7:23 PM EST
Moon 4:34 AM EST (1/27) 2:32 PM EST (1/27)
Length of Visible Light 10h 53m
Length of Day
9h 54m
Waning Crescent, 15% of the Moon is Illuminated
Jan 27
Waning Crescent
Jan 30
New
Feb 6
First Quarter
Feb 14
Full
Feb 22
Last Quarter

Hourly Weather History & Observations

Time (EST) Temp. Windchill Dew Point Humidity Pressure Visibility Wind Dir Wind Speed Gust Speed Precip Events Conditions
12:22 AM 26.6 °F 14.3 °F 21.2 °F 80% 29.52 in 2.0 mi WNW 16.1 mph 25.3 mph 0.01 in Snow Light Snow
12:26 AM 26.6 °F 13.4 °F 21.2 °F 80% 29.52 in 1.2 mi WNW 18.4 mph 33.4 mph 0.01 in Snow Light Snow
12:53 AM 24.1 °F 12.5 °F 19.0 °F 81% 29.59 in 0.8 mi West 12.7 mph 26.5 mph 0.01 in Snow Light Snow
1:15 AM 21.2 °F 5.6 °F 17.6 °F 86% 29.58 in 0.5 mi WNW 20.7 mph 31.1 mph 0.01 in Snow Snow
1:25 AM 21.2 °F 11.7 °F 15.8 °F 80% 29.58 in 1.0 mi West 8.1 mph 26.5 mph 0.01 in Snow Light Snow
1:34 AM 19.4 °F 8.6 °F 12.2 °F 74% 29.59 in 2.5 mi West 9.2 mph 21.9 mph 0.01 in Snow Light Snow
1:41 AM 21.2 °F 9.5 °F 12.2 °F 68% 29.59 in 6.0 mi West 11.5 mph 27.6 mph 0.01 in Snow Light Snow
1:53 AM 21.0 °F 7.1 °F 10.0 °F 63% 29.63 in 3.0 mi West 16.1 mph 29.9 mph 0.01 in Snow Light Snow
2:41 AM 17.6 °F 5.7 °F 8.6 °F 68% 29.66 in 2.0 mi WNW 10.4 mph 36.8 mph 0.00 in Snow Light Snow
2:46 AM 17.6 °F 6.4 °F 8.6 °F 68% 29.67 in 3.0 mi WNW 9.2 mph 36.8 mph 0.00 in Snow Light Snow
2:53 AM 17.1 °F 0.1 °F 8.1 °F 68% 29.73 in 2.5 mi WNW 20.7 mph 39.1 mph 0.00 in Snow Light Snow
2:55 AM 15.8 °F -0.2 °F 8.6 °F 73% 29.69 in 1.8 mi WNW 17.3 mph 39.1 mph 0.00 in Snow Light Snow
3:07 AM 15.8 °F 2.1 °F 6.8 °F 68% 29.70 in 2.0 mi West 12.7 mph 28.8 mph 0.00 in Snow Light Snow
3:11 AM 15.8 °F 1.4 °F 6.8 °F 68% 29.71 in 3.0 mi WNW 13.8 mph 28.8 mph 0.00 in Snow Light Snow
3:32 AM 14.0 °F -0.2 °F 5.0 °F 67% 29.73 in 6.0 mi West 12.7 mph 25.3 mph 0.00 in Snow Light Snow
3:53 AM 12.9 °F -0.2 °F 5.0 °F 71% 29.78 in 9.0 mi West 10.4 mph 29.9 mph 0.00 in   Mostly Cloudy
4:26 AM 12.2 °F -0.2 °F 3.2 °F 67% 29.80 in 10.0 mi West 9.2 mph 24.2 mph 0.00 in   Scattered Clouds
4:37 AM 12.2 °F -1.8 °F 3.2 °F 67% 29.81 in 10.0 mi West 11.5 mph 21.9 mph 0.00 in   Mostly Cloudy
4:53 AM 12.0 °F -0.4 °F 3.9 °F 70% 29.87 in 10.0 mi West 9.2 mph 19.6 mph 0.00 in   Mostly Cloudy
5:35 AM 10.4 °F -1.5 °F 1.4 °F 67% 29.88 in 10.0 mi West 8.1 mph - N/A   Partly Cloudy
5:53 AM 10.0 °F 0.4 °F 1.0 °F 67% 29.94 in 10.0 mi Variable 5.8 mph 19.6 mph N/A   Clear
6:49 AM 6.8 °F -10.0 °F -0.4 °F 72% 29.95 in 10.0 mi West 13.8 mph 23.0 mph N/A   Mostly Cloudy
6:53 AM 7.0 °F -7.5 °F -0.9 °F 70% 29.99 in 10.0 mi West 10.4 mph 23.0 mph N/A   Mostly Cloudy
7:06 AM 6.8 °F -8.6 °F -2.2 °F 67% 29.96 in 10.0 mi WSW 11.5 mph 25.3 mph N/A   Scattered Clouds
7:53 AM 5.0 °F -12.3 °F -2.9 °F 70% 30.04 in 10.0 mi WSW 13.8 mph 20.7 mph N/A   Partly Cloudy
8:53 AM 5.0 °F -10.0 °F -2.9 °F 70% 30.09 in 7.0 mi West 10.4 mph 21.9 mph N/A   Mostly Cloudy
9:05 AM 5.0 °F -10.0 °F -4.0 °F 66% 30.06 in 10.0 mi West 10.4 mph 26.5 mph N/A   Scattered Clouds
9:53 AM 5.0 °F -11.6 °F -4.0 °F 66% 30.12 in 10.0 mi WSW 12.7 mph 20.7 mph N/A   Clear
10:53 AM 7.0 °F -7.5 °F -4.0 °F 61% 30.15 in 10.0 mi West 10.4 mph 17.3 mph N/A   Clear
11:53 AM 7.0 °F -5.7 °F -4.0 °F 61% 30.17 in 10.0 mi WSW 8.1 mph 21.9 mph N/A   Clear
12:53 PM 7.0 °F -7.5 °F -5.1 °F 58% 30.17 in 10.0 mi WSW 10.4 mph 20.7 mph N/A   Clear
1:53 PM 7.0 °F -8.3 °F -5.1 °F 58% 30.17 in 10.0 mi West 11.5 mph 21.9 mph N/A   Clear
2:53 PM 7.0 °F -7.5 °F -6.0 °F 55% 30.20 in 10.0 mi West 10.4 mph 21.9 mph N/A   Clear
3:53 PM 6.1 °F -6.8 °F -8.0 °F 53% 30.22 in 10.0 mi WSW 8.1 mph 23.0 mph N/A   Clear
4:53 PM 3.9 °F -10.4 °F -8.0 °F 58% 30.25 in 10.0 mi West 9.2 mph 19.6 mph N/A   Clear
5:53 PM 1.0 °F -11.7 °F -9.9 °F 60% 30.28 in 10.0 mi Variable 6.9 mph - N/A   Clear
6:53 PM -0.0 °F -17.1 °F -11.9 °F 57% 30.32 in 10.0 mi West 11.5 mph 18.4 mph N/A   Clear
7:53 PM -0.9 °F -16.4 °F -13.0 °F 57% 30.35 in 10.0 mi West 9.2 mph 19.6 mph N/A   Clear
8:53 PM -2.9 °F -17.7 °F -13.0 °F 62% 30.37 in 10.0 mi WSW 8.1 mph - N/A   Clear
9:53 PM -4.0 °F -19.0 °F -14.1 °F 62% 30.39 in 10.0 mi WSW 8.1 mph - N/A   Clear
10:53 PM -6.0 °F -18.6 °F -15.0 °F 65% 30.41 in 10.0 mi WSW 5.8 mph - N/A   Clear
11:53 PM -7.1 °F -21.4 °F -15.0 °F 68% 30.43 in 10.0 mi WSW 6.9 mph - N/A   Clear